Location: Finnegan
(51.1333°N, 112.0833°W)
Time: 02:29:56
(UTC+00:00)

Tiangong - Pass Details

Date: 05 December 2022
Orbit: 382 x 386 km, 41.5° (Epoch: 05 February)

Event Time Altitude Azimuth Distance (km) Brightness Sun altitude
Rises 01:42:50 0° 241° (WSW) 2,250 3.0 -20.9°
Reaches altitude 10° 01:45:31 10° 216° (SW) 1,398 1.3 -21.3°
Enters shadow 01:47:14 15° 183° (S) 1,154 0.4 -21.6°
